[[{"header":{"parameterUnit":"m.s-1","parameterCategory":1,"la1":30.2991,"la2":30.254,"lo1":-89.0895,"lo2":-89.0444,"dy":0.0017,"dx":0.0017,"nx":28,"ny":28,"refTime":"2025-09-05T09:00:00:Z","depth":0,"parameterNumber":2,"parameterNumberName":"U-component_of_WINDS"},"data":[0,0,0,0,0,0,0,0,0,0,0,0,0,0,0,0,0,0,0,0,0,0,0,0,0,0,0,0,0,0,0,0,0,0,0,0,0,0,0,0,0,0,0,0,0,0,0,0,0,0,0,0,0,0,0,0,0,0,-1.6655,-1.6654,0,-1.6623,-1.6623,-1.6623,-1.6577,-1.6576,-1.6576,-1.6575,-1.6542,-1.6542,-1.6541,0,0,0,0,0,0,0,0,0,0,0,0,0,-1.6675,-1.6675,-1.6655,-1.6654,-1.6654,-1.6623,-1.6623,-1.6622,-1.6577,-1.6576,-1.6575,-1.6574,-1.6542,-1.6542,-1.6541,0,0,0,0,0,0,0,0,0,0,0,0,0,-1.6657,-1.6675,-1.6655,-1.6628,-1.6625,-1.6623,-1.6623,-1.6622,-1.6577,-1.6576,-1.6575,-1.6574,-1.6542,-1.6542,-1.6541,-1.6564,0,0,-1.6541,-1.6541,0,0,0,0,0,0,0,0,-1.6658,-1.6657,-1.6632,-1.6629,-1.6626,-1.6603,-1.6618,-1.6603,-1.6578,-1.6595,-1.6575,-1.6573,-1.6563,-1.6561,-1.6558,-1.6562,-1.6561,-1.6541,-1.654,-1.654,-1.654,0,0,0,0,0,0,0,-1.666,-1.6658,-1.6642,-1.6632,-1.6628,-1.6617,-1.6613,-1.6615,-1.6586,-1.6594,-1.659,-1.6587,-1.6561,-1.6558,-1.6556,-1.656,-1.6541,-1.654,-1.654,-1.654,-1.6582,-1.6583,0,0,0,0,0,0,-1.6665,-1.6659,-1.6643,-1.6641,-1.664,-1.6618,-1.6613,-1.6612,-1.6586,-1.6581,-1.6588,-1.6585,-1.6559,-1.6557,-1.6555,-1.658,-1.654,-1.654,-1.654,-1.6581,-1.6582,-1.6583,0,0,0,0,0,0,-1.6666,-1.6664,-1.6644,-1.6649,-1.6646,-1.6619,-1.6617,-1.6612,-1.6608,-1.6582,-1.6577,-1.659,-1.6558,-1.6555,-1.6562,-1.6578,-1.654,-1.654,-1.6579,-1.6581,-1.6583,-1.6629,0,0,0,0,0,0,-1.6666,-1.6664,-1.6672,-1.665,-1.6646,-1.6652,-1.6618,-1.6612,-1.6608,-1.6604,-1.6582,-1.6578,-1.6557,-1.6563,-1.6562,-1.6577,-1.654,-1.6578,-1.658,-1.6582,-1.6626,-1.6632,-1.6637,0,0,0,0,0,-1.6667,-1.6686,-1.6673,-1.6671,-1.6655,-1.6653,-1.6651,-1.6627,-1.661,-1.6618,-1.6601,-1.6578,-1.6577,-1.6564,-1.6562,-1.6578,-1.6576,-1.6579,-1.6582,-1.6623,-1.6631,-1.6637,0,0,0,0,0,0,-1.6711,-1.6683,-1.6668,-1.668,-1.6669,-1.6645,-1.6654,-1.6635,-1.6629,-1.6625,-1.6595,-1.6591,-1.6601,-1.659,-1.6576,-1.6598,-1.6573,-1.6576,-1.6605,-1.6612,-1.6618,-1.662,-1.654,0,0,0,0,0,-1.6722,-1.6723,-1.6698,-1.6711,-1.6707,-1.6682,-1.668,-1.6662,-1.665,-1.6645,-1.6629,-1.6617,-1.6614,-1.6612,-1.6608,-1.6624,-1.6619,-1.6634,-1.664,-1.6645,-1.6647,-1.6656,-1.6662,-1.6593,-1.6593,-1.6593,0,0,-1.6745,-1.673,-1.6732,-1.672,-1.6709,-1.6711,-1.6678,-1.6681,-1.6681,-1.6645,-1.665,-1.6638,-1.6624,-1.6635,-1.664,-1.6626,-1.6666,-1.6649,-1.6653,-1.6652,-1.6659,-1.6666,-1.6672,-1.6595,-1.6594,-1.6594,0,0,-1.6787,-1.6776,-1.6786,-1.6776,-1.6761,-1.6745,-1.6748,-1.6727,-1.6717,-1.6722,-1.6695,-1.6696,-1.6691,-1.6682,-1.6676,-1.6717,-1.6696,-1.6717,-1.6747,-1.6755,-1.676,-1.6765,-1.678,-1.6785,-1.6719,-1.6719,-1.6719,0,-1.6817,-1.6818,-1.6793,-1.6798,-1.6793,-1.6762,-1.6772,-1.6764,-1.6748,-1.6746,-1.6731,-1.6725,-1.6713,-1.6722,-1.6733,-1.6729,-1.6731,-1.6718,-1.6762,-1.6766,-1.677,-1.6784,-1.6789,-1.6722,-1.6722,-1.6721,-1.6721,0,-1.6856,-1.6857,-1.6867,-1.6854,-1.685,-1.6858,-1.6834,-1.6834,-1.6817,-1.6802,-1.6808,-1.6793,-1.6785,-1.6786,-1.677,-1.6794,-1.6786,-1.6767,-1.6741,-1.678,-1.6792,-1.6797,-1.6726,-1.6725,-1.6724,-1.6723,0,0,-1.6924,-1.6897,-1.6901,-1.6895,-1.6877,-1.6877,-1.6883,-1.6876,-1.6877,-1.6868,-1.6872,-1.6869,-1.6852,-1.6846,-1.6829,-1.6836,-1.687,-1.6816,-1.6816,-1.6827,-1.6895,-1.6909,-1.6915,-1.6856,-1.6857,-1.6858,-1.6896,0,-1.6962,-1.6971,-1.6949,-1.6964,-1.6965,-1.6935,-1.6941,-1.693,-1.6917,-1.6916,-1.6901,-1.69,-1.6877,-1.6874,-1.688,-1.6864,-1.6883,-1.6861,-1.686,-1.686,-1.6864,-1.6922,-1.6936,-1.6973,-1.6901,-1.6902,-1.6902,0,-1.7007,-1.7001,-1.7016,-1.6998,-1.6997,-1.7003,-1.6995,-1.6994,-1.6982,-1.6972,-1.6966,-1.6946,-1.6951,-1.6927,-1.6934,-1.692,-1.6918,-1.691,-1.6911,-1.6909,-1.6883,-1.6921,-1.6984,-1.699,-1.691,-1.6909,-1.6908,0,-1.7055,-1.7051,-1.7059,-1.7054,-1.7033,-1.7038,-1.7029,-1.7016,-1.7013,-1.7007,-1.7005,-1.6999,-1.6996,-1.6992,-1.697,-1.6955,-1.698,-1.6954,-1.6971,-1.6972,-1.6977,-1.6977,-1.704,-1.6977,-1.6977,-1.6977,-1.6977,0,-1.71,-1.711,-1.708,-1.7085,-1.7096,-1.7071,-1.7082,-1.7071,-1.706,-1.7062,-1.7036,-1.7039,-1.7011,-1.7011,-1.6995,-1.7003,-1.7002,-1.6993,-1.6989,-1.6995,-1.6996,-1.6993,-1.699,-1.6978,-1.6978,-1.6978,-1.6977,0,-1.7155,-1.7135,-1.7142,-1.7122,-1.7117,-1.7126,-1.7109,-1.7113,-1.7098,-1.7102,-1.7101,-1.7079,-1.7077,-1.7056,-1.705,-1.7039,-1.7054,-1.7044,-1.7058,-1.7055,-1.7073,-1.7072,-1.7136,-1.7144,-1.7076,-1.7077,-1.7077,0,-1.7184,-1.7191,-1.7172,-1.7172,-1.7165,-1.7165,-1.7163,-1.7139,-1.7138,-1.7125,-1.7131,-1.7128,-1.7124,-1.7123,-1.7106,-1.7101,-1.7092,-1.7115,-1.7091,-1.7097,-1.7092,-1.7091,-1.7092,-1.7119,-1.712,-1.7121,-1.7122,0,-1.7239,-1.7229,-1.7226,-1.7221,-1.7219,-1.7214,-1.7206,-1.7208,-1.7182,-1.7182,-1.718,-1.7177,-1.7172,-1.7169,-1.7161,-1.7152,-1.7133,-1.713,-1.7133,-1.714,-1.7147,-1.7143,-1.7071,-1.7128,-1.7127,-1.7127,-1.7126,-1.7126,-1.7281,-1.7287,-1.7274,-1.7273,-1.7265,-1.7259,-1.7262,-1.7249,-1.7247,-1.7241,-1.7227,-1.7228,-1.7217,-1.7205,-1.7198,-1.7198,-1.7186,-1.7192,-1.7193,-1.7195,-1.7198,-1.7148,-1.7197,-1.7197,-1.7196,-1.7196,-1.7196,0,-1.7335,-1.7326,-1.7324,-1.7316,-1.7315,-1.7297,-1.7288,-1.7289,-1.729,-1.7281,-1.7278,-1.7277,-1.7274,-1.7258,-1.7253,-1.7257,-1.7248,-1.7256,-1.7255,-1.7254,-1.7209,-1.7206,-1.7264,-1.7264,-1.7264,-1.7264,-1.7264,-1.7264,-1.7362,-1.737,-1.7359,-1.7364,-1.7354,-1.7355,-1.7352,-1.7347,-1.7339,-1.7339,-1.7337,-1.7327,-1.7315,-1.7309,-1.7306,-1.7302,-1.7301,-1.7313,-1.7305,-1.7263,-1.7257,-1.7251,-1.7248,-1.7313,-1.7313,-1.7349,-1.735,-1.735]},{"header":{"parameterUnit":"m.s-1","parameterCategory":1,"la1":30.2991,"la2":30.254,"lo1":-89.0895,"lo2":-89.0444,"dy":0.0017,"dx":0.0017,"nx":28,"ny":28,"refTime":"2025-09-05T09:00:00:Z","depth":0,"parameterNumber":3,"parameterNumberName":"V-component_of_WINDS"},"data":[0,0,0,0,0,0,0,0,0,0,0,0,0,0,0,0,0,0,0,0,0,0,0,0,0,0,0,0,0,0,0,0,0,0,0,0,0,0,0,0,0,0,0,0,0,0,0,0,0,0,0,0,0,0,0,0,0,0,2.4632,2.4632,0,2.461,2.461,2.461,2.4607,2.4607,2.4608,2.4608,2.4581,2.458,2.4579,0,0,0,0,0,0,0,0,0,0,0,0,0,2.4668,2.4668,2.4632,2.4632,2.4632,2.461,2.461,2.461,2.4607,2.4607,2.4608,2.4608,2.4581,2.458,2.4579,0,0,0,0,0,0,0,0,0,0,0,0,0,2.465,2.4668,2.4632,2.4628,2.4627,2.461,2.461,2.461,2.4607,2.4607,2.4608,2.4608,2.4581,2.458,2.4579,2.4563,0,0,2.4574,2.4574,0,0,0,0,0,0,0,0,2.4651,2.4649,2.4629,2.4628,2.4628,2.4612,2.4613,2.4594,2.4607,2.4615,2.4608,2.4608,2.459,2.4588,2.4583,2.4562,2.456,2.4574,2.4573,2.4573,2.4572,0,0,0,0,0,0,0,2.4652,2.465,2.4623,2.4629,2.4628,2.4626,2.4624,2.4609,2.4601,2.4614,2.4614,2.4611,2.459,2.4585,2.4583,2.456,2.4574,2.4573,2.4572,2.4571,2.4524,2.4524,0,0,0,0,0,0,2.4655,2.4651,2.4624,2.4623,2.4641,2.4625,2.4623,2.4616,2.4601,2.4599,2.4611,2.4611,2.4587,2.4584,2.4582,2.4562,2.4573,2.4571,2.4571,2.4524,2.4524,2.4524,0,0,0,0,0,0,2.4656,2.4653,2.4625,2.4637,2.4633,2.4624,2.4617,2.4616,2.461,2.4599,2.4597,2.4607,2.4587,2.4584,2.4568,2.4561,2.4571,2.4569,2.4525,2.4524,2.4524,2.4523,0,0,0,0,0,0,2.4657,2.4653,2.4648,2.4637,2.4632,2.4613,2.4617,2.4615,2.4609,2.4609,2.4595,2.4593,2.4587,2.457,2.4566,2.4559,2.4568,2.4525,2.4525,2.4524,2.4523,2.4522,2.4521,0,0,0,0,0,2.4658,2.4647,2.4648,2.4644,2.4626,2.4612,2.461,2.4605,2.4608,2.4602,2.4595,2.4593,2.4563,2.4568,2.4564,2.4557,2.4526,2.4525,2.4524,2.4524,2.4523,2.4521,0,0,0,0,0,0,2.4656,2.4646,2.4646,2.4631,2.4623,2.4612,2.4604,2.4604,2.4593,2.4593,2.4586,2.4583,2.4567,2.456,2.4567,2.4541,2.4544,2.4543,2.4546,2.4544,2.4543,2.4545,2.4567,0,0,0,0,0,2.4654,2.4646,2.4636,2.4624,2.4621,2.4613,2.4607,2.4604,2.4595,2.459,2.4582,2.4571,2.4559,2.4552,2.454,2.4523,2.4519,2.4515,2.4514,2.4514,2.4512,2.4502,2.45,2.4521,2.4521,2.4521,0,0,2.465,2.4643,2.4638,2.4624,2.4617,2.4607,2.461,2.4599,2.4591,2.4588,2.4573,2.4567,2.4554,2.4538,2.453,2.4532,2.4506,2.4512,2.4512,2.451,2.4501,2.4499,2.4497,2.452,2.452,2.452,0,0,2.4637,2.4631,2.4621,2.4614,2.4604,2.46,2.4597,2.4587,2.4583,2.4568,2.4566,2.4555,2.4535,2.4526,2.4519,2.4504,2.4501,2.45,2.4494,2.4484,2.4483,2.4481,2.4475,2.4473,2.4498,2.4498,2.4498,0,2.4632,2.4618,2.4615,2.4604,2.4598,2.4597,2.4586,2.4579,2.4565,2.456,2.4563,2.4538,2.4529,2.451,2.4507,2.4501,2.4497,2.4501,2.4484,2.4482,2.448,2.4474,2.4472,2.4498,2.4498,2.4498,2.4498,0,2.4612,2.4602,2.4595,2.4583,2.4576,2.4565,2.456,2.4553,2.4551,2.4545,2.453,2.452,2.4507,2.4502,2.4499,2.4483,2.4484,2.4485,2.4489,2.4478,2.4473,2.447,2.4498,2.4498,2.4498,2.4498,0,0,2.4596,2.4584,2.4581,2.4576,2.4566,2.4557,2.4546,2.4534,2.4528,2.4519,2.4508,2.4492,2.4493,2.4485,2.4481,2.4473,2.4461,2.4475,2.4474,2.4472,2.4441,2.444,2.4438,2.446,2.4459,2.4459,2.4442,0,2.4581,2.4562,2.456,2.4543,2.4533,2.4532,2.4523,2.4514,2.4509,2.45,2.4494,2.4482,2.4484,2.448,2.4472,2.4464,2.4454,2.4465,2.4449,2.4448,2.4451,2.4435,2.4433,2.4418,2.444,2.444,2.4439,0,2.456,2.4552,2.4535,2.4526,2.4522,2.4514,2.4503,2.4494,2.4484,2.4481,2.4473,2.4471,2.4458,2.4463,2.4444,2.4452,2.4445,2.444,2.4439,2.4437,2.4442,2.4431,2.4413,2.441,2.4436,2.4436,2.4436,0,2.455,2.4534,2.4522,2.4518,2.4507,2.4501,2.4496,2.4487,2.4481,2.4471,2.4466,2.4454,2.4448,2.4438,2.4432,2.4436,2.4414,2.4418,2.4409,2.441,2.4404,2.4404,2.4384,2.4401,2.4401,2.4401,2.4401,0,2.4533,2.4522,2.4517,2.4509,2.4497,2.4494,2.4481,2.4476,2.4469,2.4459,2.4457,2.4448,2.4441,2.443,2.4425,2.4411,2.4408,2.4404,2.4402,2.4403,2.4404,2.4398,2.4398,2.44,2.4401,2.4401,2.4401,0,2.4518,2.4515,2.4501,2.4493,2.4491,2.4482,2.4474,2.4466,2.4462,2.4449,2.4446,2.4439,2.4426,2.442,2.4404,2.44,2.4383,2.4383,2.4387,2.4386,2.4378,2.4378,2.4352,2.4348,2.4369,2.4369,2.4368,0,2.4507,2.4499,2.449,2.4485,2.448,2.4471,2.4464,2.4461,2.4454,2.4443,2.4436,2.4424,2.4414,2.4394,2.4386,2.4373,2.4372,2.4364,2.437,2.4371,2.4371,2.4371,2.437,2.4362,2.4362,2.4362,2.4362,0,2.4488,2.4487,2.4478,2.4469,2.4462,2.4455,2.4447,2.4442,2.4437,2.4429,2.4417,2.441,2.4394,2.4382,2.4369,2.4362,2.4361,2.436,2.4357,2.4358,2.436,2.4358,2.4383,2.4361,2.4361,2.4361,2.4361,2.4361,2.4474,2.4467,2.446,2.445,2.4445,2.4438,2.443,2.4426,2.4416,2.4404,2.4402,2.439,2.438,2.4363,2.4356,2.4345,2.4347,2.4343,2.4342,2.434,2.434,2.4363,2.4343,2.4343,2.4343,2.4343,2.4343,0,2.4454,2.445,2.4441,2.4432,2.4424,2.4426,2.4417,2.441,2.44,2.4392,2.4383,2.4369,2.4357,2.4349,2.4336,2.4329,2.4328,2.4326,2.4325,2.4324,2.4339,2.4343,2.4327,2.4327,2.4327,2.4327,2.4327,2.4327,2.4442,2.443,2.4429,2.4413,2.4409,2.4398,2.4393,2.4386,2.438,2.4365,2.4356,2.4351,2.4343,2.433,2.4319,2.4317,2.4311,2.4309,2.4307,2.4321,2.4323,2.4324,2.4328,2.4308,2.4308,2.4292,2.4292,2.4292]}]]